Vorticity
-0 1 0 11 13 10 3 3 6 5 4 4 11 6 6 7 9 11 12 11 7 9 7 25 27 26 18 20 15 10 5 7 11 8 8 6 8 5 6 5 6 9 10
1 2 6 15 9 12 7 4 1 7 5 4 3 10 9 7 9 9 8 7 7 10 13 15 16 17 14 14 15 14 12 12 11 13 12 12 11 10 10 11 10 8 12
2 1 7 11 8 10 13 8 5 6 5 5 4 3 4 7 10 7 6 6 6 6 7 7 6 7 7 8 6 5 4 5 5 6 8 8 6 5 5 7 7 9 10
3 5 7 6 6 7 7 12 8 6 6 4 4 4 3 2 2 3 3 4 4 6 8 10 12 13 10 7 6 6 8 5 6 9 6 5 6 7 5 6 5 4 4
5 5 8 8 7 5 5 8 11 9 8 6 5 5 4 4 5 4 4 4 3 4 4 5 4 5 7 8 6 6 5 5 6 3 5 5 6 5 6 5 7 8 7
2 5 3 2 4 3 8 6 8 5 8 9 8 6 6 5 6 5 6 8 6 4 6 8 8 7 7 6 5 6 6 8 8 6 7 6 8 4 2 3 3 5 3
3 4 2 6 3 7 13 6 6 6 5 2 6 6 8 9 5 7 6 5 7 8 6 8 10 8 7 6 5 4 5 5 5 7 6 6 7 9 7 6 5 4 7
-2 7 6 9 1 8 6 36 22 15 13 11 8 3 4 6 7 9 7 4 1 3 6 2 1 -1 4 7 4 1 -2 -2 -2 4 3 1 3 3 0 21 5 7 2
-4 9 2 -4 8 11 27 15 6 9 4 2 7 16 15 6 6 10 6 4 4 7 4 7 7 9 8 -2 2 -2 -11 12 -9 23 6 -1 3 0 -15 -0 -6 16 7
4 4 -8 21 31 -0 13 4 1 0 4 3 5 6 8 6 3 2 0 1 4 8 11 2 5 8 23 18 23 21 16 9 12 13 7 14 16 9 12 29 2 0 8
-2 25 40 64 4 -3 -1 3 6 -1 5 8 4 3 2 0 1 3 3 6 6 5 5 5 5 6 7 16 3 7 9 19 -0 -11 1 -3 -17 23 -10 -3 6 -22 -7
-22 -13 33 9 27 -7 8 -0 8 1 3 5 5 5 8 5 9 6 8 7 5 7 6 6 9 6 6 7 16 17 27 10 21 18 20 14 19 1 8 10 12 12 9
47 38 47 51 22 3 -4 7 10 7 8 12 10 2 0 8 12 10 6 9 13 16 17 18 17 17 12 12 10 9 7 8 7 6 5 6 7 7 8 7 8 8 7
10 14 11 11 11 8 14 27 16 21 15 8 8 10 7 7 4 5 12 15 15 15 13 12 9 9 7 7 8 8 7 6 5 5 5 5 5 5 5 4 5 6 5
9 9 12 13 14 12 7 10 10 4 6 10 11 7 11 11 11 12 11 9 8 6 6 5 4 5 5 5 5 6 6 6 5 4 4 4 5 5 6 6 7 6 7
11 10 12 11 10 8 15 16 20 18 14 12 13 13 12 11 10 10 7 6 5 4 5 6 7 7 7 7 5 4 4 4 5 8 9 10 9 7 7 10 16 28 35
10 11 10 10 12 13 12 11 10 9 9 8 8 8 8 8 7 7 8 8 8 9 9 9 6 5 5 6 6 8 10 12 9 7 8 10 14 22 33 43 38 26 7
5 8 10 9 9 8 8 8 8 8 7 6 4 3 5 4 5 5 6 7 8 9 8 8 9 10 11 10 8 7 9 12 16 27 29 31 30 24 25 7 7 2 4
11 10 9 8 3 3 2 3 0 2 2 2 1 5 6 6 6 6 7 8 10 10 9 8 7 6 7 10 14 17 18 18 17 23 14 11 7 14 13 9 11 18 6
4 4 6 7 6 5 3 4 4 3 3 4 5 6 5 6 10 8 8 10 9 7 7 8 11 14 15 15 18 16 18 13 12 5 5 11 14 12 11 9 7 7 9
4 4 3 5 4 4 6 6 7 7 9 9 9 10 9 9 8 7 7 7 9 11 13 13 13 10 13 12 9 16 17 15 10 7 8 6 5 5 6 9 10 12 12
9 9 8 6 6 9 8 8 8 7 8 8 7 6 6 5 6 9 11 12 11 11 11 11 9 10 9 9 13 11 12 13 13 13 14 11 11 13 13 12 10 8 9
8 8 8 9 10 10 9 8 8 8 6 5 5 7 9 13 16 17 14 14 17 16 15 11 8 10 12 13 11 12 10 10 9 10 11 12 12 12 12 11 11 13 12
6 6 6 6 8 9 10 11 9 9 12 16 16 17 15 13 12 11 9 7 7 6 7 9 10 12 12 14 12 11 10 11 11 11 11 12 11 10 10 9 10 11 11
11 12 13 13 14 13 13 13 12 12 12 11 11 11 10 10 10 10 11 10 9 12 11 12 14 13 12 12 12 13 13 14 13 11 10 9 9 10 12 15 19 22 21
13 14 14 14 13 13 12 12 11 12 12 12 13 13 13 13 13 15 14 14 15 12 14 14 13 13 13 12 11 10 10 8 7 8 12 17 22 23 22 20 19 17 15
Height
5673 5676 5679 5684 5687 5689 5691 5693 5694 5695 5697 5698 5698 5698 5698 5699 5700 5701 5702 5701 5701 5702 5704 5704 5705 5708 5709 5710 5711 5712 5714 5713 5714 5714 5712 5712 5712 5712 5712 5712 5711 5713 5714
5667 5669 5673 5677 5681 5683 5685 5688 5689 5691 5692 5694 5695 5696 5696 5696 5697 5698 5698 5699 5699 5700 5701 5702 5702 5704 5705 5706 5707 5708 5708 5707 5707 5707 5705 5706 5706 5705 5707 5706 5706 5704 5704
5660 5663 5667 5671 5674 5676 5679 5682 5683 5684 5686 5688 5689 5691 5692 5693 5693 5693 5694 5694 5695 5696 5698 5698 5699 5700 5701 5700 5701 5701 5702 5699 5698 5700 5702 5700 5698 5698 5698 5698 5697 5696 5697
5651 5656 5660 5664 5666 5670 5672 5674 5676 5677 5679 5680 5682 5683 5685 5686 5686 5687 5689 5690 5691 5692 5693 5693 5694 5695 5695 5695 5695 5695 5693 5692 5692 5692 5694 5693 5692 5693 5689 5691 5688 5688 5687
5644 5648 5653 5656 5659 5662 5665 5666 5668 5671 5672 5674 5675 5677 5678 5679 5680 5682 5684 5685 5686 5687 5688 5688 5688 5688 5689 5688 5688 5687 5686 5685 5684 5683 5685 5685 5686 5685 5683 5681 5677 5678 5676
5637 5641 5645 5649 5652 5654 5655 5657 5660 5662 5664 5667 5669 5670 5672 5672 5674 5676 5677 5678 5679 5679 5680 5680 5680 5680 5680 5679 5678 5678 5677 5676 5676 5674 5674 5674 5676 5674 5671 5669 5668 5667 5666
5629 5632 5636 5640 5643 5645 5646 5646 5649 5652 5655 5658 5660 5662 5663 5665 5668 5668 5668 5668 5668 5669 5669 5669 5669 5668 5668 5668 5669 5668 5666 5666 5664 5663 5661 5661 5660 5660 5660 5658 5656 5654 5652
5620 5624 5627 5630 5633 5636 5637 5638 5641 5643 5646 5649 5651 5652 5653 5656 5657 5657 5658 5658 5658 5658 5658 5657 5659 5659 5658 5658 5656 5656 5655 5654 5652 5651 5649 5648 5647 5646 5643 5642 5641 5638 5635
5612 5616 5620 5623 5625 5626 5628 5631 5634 5636 5638 5640 5641 5642 5643 5646 5647 5647 5647 5647 5647 5646 5647 5648 5648 5647 5648 5645 5645 5643 5643 5643 5641 5637 5634 5634 5631 5631 5629 5625 5623 5620 5617
5603 5606 5609 5613 5615 5616 5620 5622 5626 5627 5629 5630 5632 5633 5634 5635 5637 5638 5637 5635 5634 5635 5635 5635 5635 5634 5633 5632 5631 5630 5628 5627 5626 5625 5622 5620 5618 5615 5613 5609 5606 5603 5598
5595 5598 5597 5599 5602 5608 5610 5613 5615 5617 5618 5620 5621 5622 5623 5624 5625 5626 5625 5624 5623 5622 5621 5620 5619 5619 5619 5620 5615 5614 5613 5612 5608 5608 5604 5602 5600 5597 5593 5591 5587 5583 5579
5583 5585 5585 5588 5591 5593 5597 5598 5602 5605 5606 5608 5610 5610 5610 5612 5612 5612 5612 5611 5610 5609 5608 5607 5606 5605 5604 5603 5601 5599 5597 5594 5591 5589 5586 5584 5581 5578 5575 5571 5568 5564 5560
5572 5574 5575 5575 5579 5582 5582 5585 5586 5590 5592 5593 5595 5596 5597 5597 5597 5597 5597 5596 5595 5595 5595 5594 5592 5591 5589 5587 5585 5583 5581 5579 5576 5573 5570 5566 5563 5559 5555 5551 5547 5543 5539
5564 5567 5569 5570 5572 5574 5576 5576 5577 5577 5579 5582 5583 5584 5584 5584 5583 5583 5583 5582 5581 5580 5579 5578 5576 5575 5573 5571 5569 5567 5565 5562 5560 5556 5552 5548 5543 5540 5536 5531 5527 5522 5518
5556 5556 5557 5560 5561 5563 5564 5565 5565 5567 5567 5569 5570 5571 5571 5570 5570 5569 5569 5568 5567 5566 5565 5563 5561 5559 5557 5555 5553 5551 5548 5545 5541 5537 5533 5528 5524 5519 5514 5509 5504 5499 5494
5551 5550 5551 5551 5550 5551 5552 5553 5553 5554 5555 5557 5557 5557 5557 5556 5556 5556 5555 5554 5553 5551 5549 5548 5546 5543 5541 5538 5535 5532 5529 5525 5521 5516 5512 5507 5502 5496 5491 5485 5479 5473 5468
5541 5541 5541 5541 5541 5542 5542 5542 5542 5543 5543 5543 5543 5543 5543 5543 5542 5541 5540 5539 5537 5536 5533 5531 5528 5525 5522 5519 5516 5512 5508 5504 5500 5495 5489 5484 5478 5471 5466 5460 5456 5452 5449
5530 5530 5530 5530 5530 5530 5531 5531 5530 5530 5530 5530 5530 5530 5530 5529 5527 5526 5523 5521 5520 5517 5514 5511 5508 5504 5501 5498 5494 5490 5486 5481 5476 5471 5465 5460 5454 5450 5446 5442 5439 5436 5433
5516 5516 5517 5517 5517 5517 5517 5517 5517 5516 5516 5516 5515 5514 5513 5511 5509 5507 5505 5502 5500 5496 5493 5490 5487 5484 5480 5476 5472 5467 5463 5459 5455 5451 5446 5442 5438 5434 5430 5427 5423 5420 5417
5502 5502 5501 5501 5501 5501 5501 5501 5501 5500 5500 5499 5498 5496 5494 5493 5490 5488 5485 5483 5480 5477 5474 5470 5466 5463 5459 5455 5451 5447 5443 5440 5437 5433 5429 5425 5421 5418 5414 5410 5406 5403 5399
5487 5487 5486 5486 5486 5485 5485 5484 5483 5482 5481 5480 5478 5476 5475 5473 5470 5467 5464 5461 5459 5456 5453 5449 5446 5443 5439 5436 5432 5428 5424 5421 5418 5415 5411 5408 5404 5400 5397 5393 5389 5385 5381
5470 5469 5468 5467 5467 5466 5465 5464 5463 5462 5460 5459 5457 5455 5453 5451 5448 5445 5442 5440 5438 5435 5432 5429 5426 5423 5419 5415 5413 5409 5405 5402 5399 5396 5392 5389 5385 5382 5378 5374 5370 5366 5362
5449 5449 5448 5448 5447 5446 5444 5443 5442 5441 5439 5437 5435 5433 5431 5429 5426 5424 5422 5420 5417 5415 5412 5409 5406 5402 5399 5396 5393 5390 5387 5384 5380 5377 5373 5370 5367 5363 5359 5355 5351 5347 5343
5428 5426 5425 5424 5423 5423 5422 5421 5420 5418 5417 5415 5413 5411 5409 5408 5406 5404 5402 5400 5397 5395 5392 5389 5386 5383 5380 5377 5375 5371 5368 5365 5362 5358 5355 5351 5347 5344 5340 5336 5332 5328 5324
5407 5406 5405 5404 5402 5401 5400 5399 5397 5396 5395 5394 5392 5391 5389 5388 5385 5384 5381 5379 5377 5374 5372 5369 5366 5363 5361 5358 5355 5353 5350 5346 5343 5339 5336 5332 5328 5325 5321 5317 5313 5309 5305
5384 5383 5382 5381 5381 5380 5379 5378 5376 5375 5374 5373 5371 5370 5368 5367 5365 5363 5361 5359 5357 5354 5352 5350 5347 5345 5343 5340 5337 5335 5332 5328 5324 5320 5317 5313 5309 5305 5302 5298 5295 5292 5289